"Time","Temp","Dewpoint","Humidity","Pressure","Direction","Speed","Gust","Precip","PrecipRate"
"00:04:56","34.9","33.6","95","30.36","86","0","0","0.01","0.04"
"00:09:57","35","33.7","95","30.36","86","0","1","0.01","0.03"
"00:14:58","35","33.7","95","30.36","86","0.1","2","0.01","0.03"
"00:19:58","35.1","33.8","95","30.35","86","0.7","2.3","0.01","0.03"
"00:24:59","35.2","33.9","95","30.35","86","0","1","0.01","0.03"
"00:29:59","35.2","33.9","95","30.35","86","0.7","2.3","0.02","0.03"
"00:34:56","35.3","34","95","30.35","86","0","0","0.02","0.03"
"00:39:58","35.3","34","95","30.35","86","0","0","0.02","0.03"
"00:44:58","35.3","34","95","30.35","86","0","0","0.03","0.04"
"00:49:58","35.3","34","95","30.35","86","0","0","0.03","0.04"
"00:54:58","35.3","34","95","30.35","86","0","0","0.03","0.03"
"00:59:58","35.3","34","95","30.35","85","0","0","0.03","0.03"
"01:04:59","35.3","34","95","30.34","85","0","0","0.03","0.03"
"01:09:59","35.3","34","95","30.34","85","0","0","0.03","0.02"
"01:14:57","35.3","34","95","30.34","85","0.5","2.3","0.03","0.02"
"01:19:58","35.3","34","95","30.34","85","0.2","2","0.03","0.02"
"01:24:58","35.3","34","95","30.34","85","0","0","0.04","0.03"
"01:29:59","35.3","34","95","30.34","85","0","1.2","0.04","0.03"
"01:34:59","35.3","34","95","30.33","85","0","1","0.05","0.02"
"01:39:56","35.3","34","95","30.33","67","0.8","2.3","0.05","0.03"
"01:44:57","35.3","34","95","30.33","51","0.9","2.3","0.05","0.03"
"01:49:58","35.3","34","95","30.33","51","0.5","2.3","0.05","0.02"
"01:54:59","35.2","33.9","95","30.33","51","1","2.3","0.06","0.03"
"01:59:56","35.1","33.8","95","30.33","50","1.2","3.5","0.06","0.03"
"02:04:56","35","33.7","95","30.32","20","1.7","3.5","0.06","0.03"
"02:09:59","35","33.7","95","30.32","20","0.9","2.3","0.06","0.03"
"02:14:57","34.9","33.6","95","30.32","20","0.9","2.3","0.06","0.03"
"02:19:58","35","33.7","95","30.31","20","0.1","1.2","0.06","0.03"
"02:24:58","34.9","33.6","95","30.31","16","1.9","3.5","0.06","0.03"
"02:29:58","34.9","33.6","95","30.31","10","1.2","3.5","0.06","0.02"
"02:34:57","34.8","33.5","95","30.30","5","1.4","3.5","0.07","0.03"
"02:39:59","34.8","33.5","95","30.30","5","0.2","1.2","0.07","0.02"
"02:44:58","34.9","33.7","95.4","30.30","5","0.3","2.3","0.07","0.02"
"02:49:58","34.9","33.7","95.5","30.28","5","0.2","2.3","0.07","0.02"
"02:54:59","34.9","33.9","96","30.28","5","0.3","2","0.07","0.02"
"02:59:56","34.9","33.9","96","30.28","5","0.9","3","0.07","0.01"
"03:04:56","35","34","96","30.27","5","0.9","3.5","0.07","0.01"
"03:09:59","35","34","96","30.27","5","1.9","3.5","0.07","0.01"
"03:14:57","35.1","34.1","96","30.28","7","1","4","0.07","0.01"
"03:19:57","35.1","34.1","96","30.28","358","1.7","3.5","0.07","0.01"
"03:24:57","35.1","34.1","96","30.28","352","1.5","2.3","0.08","0.02"
"03:29:56","35.1","34.1","96","30.28","350","0.9","3.5","0.08","0.02"
"03:34:56","35.1","34.1","96","30.28","350","0.5","3.5","0.08","0.02"
"03:39:58","35.1","34.1","96","30.28","350","1","2.3","0.09","0.02"
"03:44:58","35.1","34.1","96","30.28","333","1.8","3.5","0.09","0.02"
"03:49:59","35.1","34.1","96","30.26","313","2","3.5","0.09","0.02"
"03:54:56","35.1","34.1","96","30.26","315","1.6","3.5","0.09","0.02"
"03:59:56","35.1","34.1","96","30.26","315","1.3","3.5","0.09","0.02"
"04:04:57","35.2","34.2","96","30.25","315","1.7","3.5","0.09","0.02"
"04:09:56","35.2","34.2","96","30.25","315","0.1","3.5","0.09","0.02"
"04:14:58","35.2","34.2","96","30.25","315","0.7","2.3","0.10","0.03"
"04:19:59","35.2","34.2","96","30.23","315","0.6","2.3","0.10","0.03"
"04:24:59","35.3","34.3","96","30.23","315","0.2","2.3","0.10","0.03"
"04:29:59","35.3","34.3","96","30.23","315","0.5","2.3","0.10","0.02"
"04:34:56","35.3","34.3","96","30.21","315","0.7","2.3","0.10","0.02"
"04:44:58","35.4","34.4","96","30.22","315","1.1","3.5","0.11","0.01"
"04:49:58","35.4","34.4","96","30.22","319","1.8","3.5","0.11","0.02"
"04:54:58","35.5","34.5","96","30.22","341","2.4","3.5","0.11","0.02"
"04:59:58","35.5","34.5","96","30.22","332","2.2","4","0.11","0.02"
"05:04:59","35.5","34.5","96","30.22","318","2.1","3.5","0.11","0.02"
"05:09:58","35.5","34.5","96","30.22","315","2.1","3.5","0.11","0.02"
"05:14:55","35.5","34.5","96","30.22","320","2.1","4","0.11","0.02"
"05:19:57","35.4","34.4","96","30.22","322","0.7","4","0.11","0.01"
"05:24:58","35.4","34.4","96","30.22","324","0.5","2.3","0.11","0.01"
"05:29:59","35.4","34.4","96","30.22","324","0.5","3.5","0.12","0.02"
"05:34:59","35.4","34.4","96","30.20","324","0.8","3.5","0.12","0.02"
"05:39:57","35.5","34.5","96","30.20","324","0.4","3.5","0.12","0.02"
"05:44:57","35.5","34.5","96","30.20","324","0.5","2.3","0.12","0.02"
"05:49:58","35.6","34.6","96","30.19","324","0.2","2.3","0.12","0.01"
"05:54:59","35.6","34.6","96","30.19","324","1.1","3.5","0.12","0.01"
"05:59:59","35.6","34.6","96","30.19","324","0.6","3.5","0.12","0.01"
"06:04:55","35.6","34.6","96","30.19","324","0.8","2.3","0.12","0.01"
"06:09:59","35.6","34.6","96","30.19","324","0.2","1.2","0.12","0.01"
"06:14:57","35.7","34.7","96","30.19","324","0","0","0.12","0.01"
"06:19:58","35.6","34.6","96","30.17","323","0.3","2.3","0.12","0.01"
"06:24:56","35.7","34.7","96","30.17","326","1.9","5","0.13","0.02"
"06:29:58","35.7","34.7","96","30.19","326","1.8","4.6","0.13","0.02"
"06:34:59","35.7","34.7","96","30.19","320","2","4","0.13","0.01"
"06:39:56","35.7","34.7","96","30.19","314","2.4","4","0.13","0.01"
"06:44:57","35.7","34.7","96","30.23","325","3.3","5","0.13","0.01"
"06:49:59","35.7","34.7","96","30.23","315","2.3","4","0.13","0.01"
"06:54:56","35.7","34.7","96","30.23","316","2.3","4","0.13","0.01"
"06:59:57","35.7","34.7","96","30.23","331","1.6","4","0.13","0.01"
"07:04:57","35.6","34.6","96","30.20","320","0.6","2.3","0.13","0.01"
"07:09:56","35.6","34.6","96","30.20","320","0","1.2","0.13","0.01"
"07:14:59","35.6","34.6","96","30.20","320","0","0","0.13","0.01"
"07:19:59","35.5","34.5","96","30.18","320","0","0","0.13","0.01"
"07:24:59","35.5","34.5","96","30.18","320","0","0","0.13","0.01"
"07:29:59","35.5","34.5","96","30.18","320","0","0","0.14","0.01"
"07:34:59","35.6","34.6","96","30.16","320","0","0","0.14","0.01"
"07:39:57","35.7","34.7","96","30.16","321","1.1","3.5","0.14","0.01"
"07:44:56","35.7","34.7","96","30.16","255","0.9","3.5","0.15","0.02"
"07:49:59","35.7","34.7","96","30.15","218","0.6","2.3","0.15","0.02"
"07:54:58","35.8","34.8","96","30.15","219","1.2","2.3","0.15","0.02"
"07:59:59","35.9","34.9","96.4","30.16","220","1","3","0.15","0.02"
"08:04:59","35.9","35.1","97","30.16","221","0.4","2.3","0.15","0.02"
"08:09:58","36.1","35.3","97","30.16","221","1.1","2.3","0.15","0.02"
"08:14:59","36.2","35.4","97","30.18","221","1.8","3.5","0.15","0.02"
"08:19:58","36.2","35.3","96.7","30.18","221","0.8","2.3","0.15","0.02"
"08:24:58","36.2","35.2","96","30.18","221","0.7","2.3","0.15","0.02"
"08:29:59","36.2","35.2","96","30.18","221","0.1","1.2","0.15","0.02"
"08:34:58","36.2","35.2","96","30.16","221","0.3","1.2","0.15","0.01"
"08:39:57","36.3","35.3","96","30.16","214","0.9","2.3","0.15","0.01"
"08:44:56","36.5","35.6","96.8","30.16","183","1.2","3.5","0.15","0.01"
"08:49:56","36.7","35.9","97","30.14","286","2.5","5","0.15","0.00"
"08:54:56","36.9","36.1","97","30.14","343","2.5","4.6","0.16","0.01"
"08:59:55","37","36.1","96.8","30.15","316","2.4","5","0.16","0.01"
"09:04:56","37.1","36.3","97","30.15","321","1.6","3.5","0.16","0.01"
"09:09:59","37","36.1","96.3","30.15","324","1.4","4","0.16","0.01"
"09:14:56","37.1","36.3","97","30.15","321","2","5","0.16","0.01"
"09:19:59","37.1","36.1","96.3","30.14","313","2.4","4.6","0.16","0.01"
"09:24:59","37.2","36.3","96.6","30.14","262","2.1","5","0.16","0.01"
"09:29:58","37.3","36.4","96.6","30.16","294","2","5","0.16","0.01"
"09:34:57","37.4","36.4","96.4","30.16","311","1.4","4","0.16","0.01"
"09:39:56","37.6","36.7","96.6","30.16","258","2.2","4","0.16","0.01"
"09:44:56","37.9","37.1","97","30.16","261","1.6","4","0.16","0.01"
"09:49:56","38","37","96.2","30.14","329","0.6","4","0.16","0.01"
"09:54:56","38.1","37.1","96","30.14","328","1.3","3.5","0.16","0.01"
"09:59:56","38.3","37.5","96.8","30.14","246","1.3","3.5","0.16","0.00"
"10:04:56","38.7","37.7","96.4","30.14","239","1","3.5","0.16","0.00"
"10:09:58","39.2","38.4","97","30.14","226","1.1","4","0.16","0.00"
"10:14:56","39.5","38.7","96.9","30.14","231","1.5","3.5","0.16","0.00"
"10:19:56","39.6","38.5","95.7","30.13","320","2.4","4","0.16","0.00"
"10:24:56","39.4","38.1","95","30.13","328","2.1","5","0.16","0.00"
"10:29:58","39.3","38","95","30.13","357","1.2","3.5","0.16","0.00"
"10:34:58","39.4","38.1","95","30.12","20","0.5","2.3","0.16","0.00"
"10:39:56","39.4","38.1","95","30.12","13","0.7","2.3","0.16","0.00"
"10:44:56","39.5","38.2","95","30.13","5","1","4","0.16","0.00"
"10:49:56","39.5","38.2","94.9","30.13","333","3.5","6","0.16","0.00"
"10:54:56","39.4","38","94.6","30.13","346","2.7","5","0.16","0.00"
"10:59:59","39.4","38.1","94.9","30.13","335","1.9","4","0.16","0.00"
"11:04:59","39.5","38.2","94.9","30.13","331","2.9","6","0.16","0.00"
"11:09:57","39.6","38.2","94.8","30.13","317","2.4","5","0.16","0.00"
"11:14:59","39.8","38.5","95","30.13","333","2.2","6","0.16","0.00"
"11:19:59","40","38.7","95","30.13","337","2.3","4","0.16","0.00"
"11:24:58","40.1","38.7","94.5","30.13","347","1.8","4","0.16","0.00"
"11:29:58","40.3","38.7","94","30.13","343","1.1","3.5","0.16","0.00"
"11:34:58","40.5","38.9","94","30.13","345","1.4","5","0.16","0.00"
"11:39:59","40.5","38.6","93.1","30.13","319","1.2","3.5","0.16","0.00"
"11:44:59","40.6","38.8","93.2","30.13","237","0.7","3.5","0.16","0.00"
"11:49:58","40.8","39.2","93.9","30.13","266","1.2","4","0.16","0.00"
"11:54:58","41","39.1","93","30.13","277","1.4","3.5","0.16","0.00"
"11:59:58","41.1","39.2","93","30.13","277","0.2","2.3","0.16","0.00"
"12:04:58","41.5","39.7","93.6","30.13","322","1.9","5","0.16","0.00"
"12:09:56","41.7","39.7","92.5","30.13","257","1.5","4","0.16","0.00"
"12:14:57","41.8","39.7","92.2","30.13","260","1.6","4","0.16","0.00"
"12:19:57","41.9","39.8","92.3","30.13","226","1.5","4","0.16","0.00"
"12:24:57","42.3","40.3","92.7","30.13","289","1.9","3.5","0.16","0.00"
"12:29:57","42.8","40.6","92","30.13","306","1.1","3.5","0.16","0.00"
"12:34:56","43.3","40.8","90.7","30.12","295","0.7","3.5","0.16","0.00"
"12:39:57","43.7","41.3","91.4","30.12","213","1.9","4","0.16","0.00"
"12:44:57","44.1","41.4","90.3","30.12","217","0.8","3.5","0.16","0.00"
"12:49:56","44.4","41.8","90.6","30.12","217","0.9","3.5","0.16","0.00"
"12:54:56","44.9","42.1","89.7","30.12","217","1.6","5","0.16","0.00"
"12:59:56","45.2","42.1","89","30.12","225","1.3","4","0.16","0.00"
"13:04:56","45.5","42.2","88.4","30.12","250","1.4","4","0.16","0.00"
"13:32:58","48.8","44.5","84.9","30.12","214","1","2.3","0.16","0.00"
"13:39:57","49.5","45.1","84.5","30.12","234","1.7","4","0.16","0.00"
"13:44:58","50","45.4","84","30.13","206","2","4","0.16","0.00"
"13:54:56","50.3","44.8","81.4","30.13","165","1","2.3","0.16","0.00"
"13:59:56","50.4","45","81.7","30.13","116","2.9","5","0.16","0.00"
"14:04:58","50.3","44.6","80.7","30.11","119","3","5","0.16","0.00"
"14:09:56","50","44.6","81.6","30.11","119","2.2","4","0.16","0.00"
"14:14:58","50.3","45.6","83.9","30.11","123","0.9","3.5","0.16","0.00"
"14:19:57","51.1","45.9","82.3","30.11","137","1.5","3.5","0.16","0.00"
"14:24:57","52.1","46.6","81.5","30.11","110","1.6","4","0.16","0.00"
"14:29:57","52.8","47.1","80.7","30.11","164","1.9","4","0.16","0.00"
"14:34:57","53.4","46.9","78.5","30.11","201","1.6","5","0.16","0.00"
"14:39:59","53.8","47.1","78.1","30.11","169","1.2","4","0.16","0.00"
"14:44:59","54.7","48.1","78.6","30.11","126","1.9","4","0.16","0.00"
"14:49:59","55.4","47.9","75.7","30.11","236","2","4","0.16","0.00"
"14:54:56","56.1","48.6","75.8","30.11","202","2.6","4","0.16","0.00"
"14:59:56","56.3","48.5","75.2","30.11","228","1.8","6","0.16","0.00"
"15:04:58","56.5","47.9","73","30.11","306","2","5","0.16","0.00"
"15:14:57","55.8","47.4","73.3","30.12","214","1.2","3.5","0.16","0.00"
"15:19:56","55.5","47.1","73.3","30.12","312","1.9","4","0.16","0.00"
"15:24:57","55.3","47.2","74","30.12","282","2","4","0.16","0.00"
"15:29:56","55.4","47.7","75.3","30.13","305","1.1","5","0.16","0.00"
"15:34:57","56.2","48.2","74.5","30.13","281","1.3","3.5","0.16","0.00"
"15:39:58","56.4","47.5","72","30.13","336","1.4","3.5","0.16","0.00"
"15:44:58","56.2","47.5","72.5","30.13","299","1.3","3.5","0.16","0.00"
"15:49:58","56.3","47.9","73.5","30.13","246","1","3.5","0.16","0.00"
"15:54:58","56.7","48.2","73.2","30.13","238","0.7","2.3","0.16","0.00"
"15:59:58","56.9","47.4","70.7","30.13","221","1.2","2.3","0.16","0.00"
"16:04:56","56.6","47.7","72.2","30.13","220","1.1","3.5","0.16","0.00"
"16:09:58","57.1","48.5","73","30.13","221","1.2","3.5","0.16","0.00"
"16:14:59","57.7","48.2","70.5","30.13","215","1.4","4","0.16","0.00"
"16:19:59","57.8","48","69.7","30.12","186","2.3","4","0.16","0.00"
"16:24:59","57.8","48.3","70.4","30.12","175","1.7","4","0.16","0.00"
"16:29:59","57.8","47.7","68.9","30.13","105","1.7","5","0.16","0.00"
"16:34:59","57.7","47.9","69.7","30.13","105","0.7","3","0.16","0.00"
"16:39:56","57.9","48.2","69.9","30.13","127","1.4","3.5","0.16","0.00"
"16:44:56","58.2","48","68.9","30.14","147","0.7","2.3","0.16","0.00"
"16:49:56","58.4","48.4","69.3","30.14","148","0.6","3.5","0.16","0.00"
"16:54:56","58.7","48.1","67.7","30.14","149","1.4","3.5","0.16","0.00"
"16:59:59","58.8","47.9","67","30.15","150","0.8","3","0.16","0.00"
"17:04:57","58.2","47.7","67.9","30.15","148","1.5","3.5","0.16","0.00"
"17:09:56","57.4","47.3","68.9","30.15","148","0.8","3.5","0.16","0.00"
"17:14:57","56.8","47.2","70.3","30.16","148","1.6","4","0.16","0.00"
"17:19:57","56.4","47.3","71.6","30.16","158","2.1","4","0.16","0.00"
"17:24:56","55.9","47.4","73","30.16","161","1.9","3.5","0.16","0.00"
"17:29:59","55.4","47","73.3","30.17","176","2.7","4","0.16","0.00"
"17:34:58","54.8","46.7","73.9","30.17","181","2","3.5","0.16","0.00"
"17:39:55","54.4","46.4","74.3","30.17","187","2.3","4","0.16","0.00"
"17:44:58","53.8","46.2","75.3","30.17","190","2.2","4","0.16","0.00"
"17:49:58","53.4","46","76","30.17","190","0.6","3.5","0.16","0.00"
"17:54:57","53.2","46.1","77","30.17","190","0.5","2.3","0.16","0.00"
"17:59:57","52.9","45.9","77","30.18","190","0","1.2","0.16","0.00"
"18:04:58","52.6","45.6","77.1","30.18","190","0","0","0.16","0.00"
"18:09:56","52.3","45.7","78.4","30.18","190","0","0","0.16","0.00"
"18:14:58","51.9","45.6","79","30.19","190","0","0","0.16","0.00"
"18:19:58","51.5","45.5","80","30.19","190","0","0","0.16","0.00"
"18:24:56","51.1","45.4","80.7","30.19","190","0","0","0.16","0.00"
"18:29:59","50.7","45.2","81.5","30.20","190","0","0","0.16","0.00"
"18:34:58","50.4","45.1","82","30.20","190","0","0","0.16","0.00"
"18:39:58","50","45","82.9","30.20","190","0","0","0.16","0.00"
"18:44:56","49.6","44.8","83.5","30.21","190","0","0","0.16","0.00"
"18:49:58","49.3","44.7","84","30.21","190","0","0","0.16","0.00"
"18:54:56","49.1","44.7","84.8","30.21","190","0","0","0.16","0.00"
"18:59:56","48.7","44.2","84.3","30.21","190","0","0","0.16","0.00"
"19:04:56","48.2","43.8","84.8","30.21","190","0","0","0.16","0.00"
"19:09:59","47.6","43.3","85","30.21","190","0","0","0.16","0.00"
"19:14:56","47","42.9","85.8","30.23","190","0","0","0.16","0.00"
"19:19:58","46.6","43","87.6","30.23","190","0","0","0.16","0.00"
"19:24:57","46.2","42.9","88.2","30.23","190","0","0","0.16","0.00"
"19:29:59","45.9","42.8","89","30.23","190","0","0","0.16","0.00"
"19:34:58","45.6","42.6","89.5","30.23","190","0","0","0.16","0.00"
"19:39:59","45.3","42.4","89.5","30.23","190","0","0","0.16","0.00"
"19:44:58","45.1","42.3","90","30.23","190","0","0","0.16","0.00"
"19:49:56","45","42.5","90.9","30.22","190","0","0","0.16","0.00"
"19:54:58","44.8","42.3","91","30.22","190","0","0","0.16","0.00"
"19:59:59","44.6","42.1","91","30.23","190","0","0","0.16","0.00"
"20:04:56","44.3","41.8","90.8","30.23","190","0","0","0.16","0.00"
"20:09:55","43.8","41.1","90","30.23","190","0","0","0.16","0.00"
"20:14:56","43.4","40.7","90.2","30.23","190","0","0","0.16","0.00"
"20:19:58","43","40.7","91.3","30.23","190","0","0","0.16","0.00"
"20:24:56","43","41","92.7","30.23","190","0","0","0.16","0.00"
"20:29:58","42.8","40.6","91.9","30.23","190","0","0","0.16","0.00"
"20:34:57","42.4","40","91","30.23","190","0","0","0.16","0.00"
"20:39:56","42.1","39.8","91.6","30.23","190","0","0","0.16","0.00"
"20:44:59","41.9","39.8","92.2","30.24","190","0","0","0.16","0.00"
"20:49:58","41.9","40","93","30.24","190","0","0","0.16","0.00"
"20:54:57","41.9","40.1","93.3","30.24","190","0","0","0.16","0.00"
"20:59:57","42","40.4","94","30.24","190","0","0","0.16","0.00"
"21:04:59","42.2","40.6","94","30.24","190","0","0","0.16","0.00"
"21:09:58","42.2","40.6","94","30.24","190","0","0","0.16","0.00"
"21:14:58","42","40.4","94","30.25","190","0","0","0.16","0.00"
"21:19:57","42","40.4","94","30.25","190","0","0","0.16","0.00"
"21:24:59","42","40.5","94.3","30.25","190","0","0","0.16","0.00"
"21:29:57","42.1","40.8","95","30.25","190","0","0","0.16","0.00"
"21:34:56","42.2","40.6","94.3","30.25","190","0","0","0.16","0.00"
"21:39:55","42","40.3","93.5","30.25","190","0","0","0.16","0.00"
"21:44:58","41.8","39.9","93.2","30.26","190","0","0","0.16","0.00"
"21:49:57","41.7","40.1","94","30.26","190","0","0","0.16","0.00"
"21:54:58","41.7","40.2","94.4","30.26","190","0","0","0.16","0.00"
"21:59:57","41.9","40.6","95","30.27","190","0","0","0.16","0.00"
"22:04:58","41.9","40.6","95","30.27","190","0","0","0.16","0.00"
"22:09:57","41.9","40.6","95","30.27","190","0","0","0.16","0.00"
"22:14:57","41.8","40.4","94.7","30.27","190","0.3","2.3","0.16","0.00"
"22:24:57","41.9","40.6","95","30.27","190","0","0","0.16","0.00"
"22:29:59","41.8","40.3","94.2","30.29","190","0","0","0.16","0.00"
"22:34:57","41.8","40.4","94.8","30.29","190","0","0","0.16","0.00"
"22:39:56","41.9","40.6","95","30.29","190","0","0","0.16","0.00"
"22:44:58","42","40.7","95","30.29","190","0","0","0.16","0.00"
"22:49:58","42.1","40.8","95","30.29","190","0","0","0.16","0.00"
"22:54:57","42","40.7","94.8","30.29","190","0","0","0.16","0.00"
"22:59:56","41.7","40.1","94","30.30","190","0","0","0.16","0.00"
"23:04:56","41.5","39.9","94","30.30","190","0","0","0.16","0.00"
"23:09:58","41.5","40.2","94.9","30.30","190","0","1","0.16","0.00"
"23:14:58","41.7","40.6","95.5","30.30","190","1","3","0.16","0.00"
"23:19:56","42","40.9","96","30.29","190","0","1.2","0.16","0.00"
"23:24:58","42.2","41","95.5","30.29","190","0.4","2.3","0.16","0.00"
"23:29:56","42","40.7","95","30.29","190","0","0","0.16","0.00"
"23:34:59","41.8","40.5","95","30.29","190","0.5","2.3","0.16","0.00"
"23:39:59","41.9","40.6","95","30.29","190","0","0","0.16","0.00"
"23:44:57","41.8","40.5","95","30.29","190","0","0","0.16","0.00"
"23:49:59","41.8","40.5","95","30.29","190","0.2","1.2","0.16","0.00"
"23:54:57","41.9","40.7","95.6","30.29","190","0.4","3.5","0.16","0.00"
"23:59:55","42.3","41.3","96.4","30.29","191","0.6","3.5","0.16","0.00"
